Location: Unspecified
(50.7693°N, 0.0000°E)
Time: 10:07:35
(UTC+00:00)

A-11 Canister half - Pass Details

Date: 24 June 2019
Orbit: 1527 x 1682 km, 47.3° (Epoch: 15 October)

Event Time Altitude Azimuth Distance (km) Brightness Sun altitude
Rises 06:09:47 0° 256° (WSW) 4,727 10.9 19.1°
Reaches altitude 10° 06:12:52 10° 254° (WSW) 3,729 10.5 19.5°
Maximum altitude 06:22:11 71° 173° (S) 1,601 9.5 21.0°
Drops below altitude 10° 06:31:25 10° 92° (E) 3,700 12.9 22.4°
Sets 06:34:28 0° 90° (E) 4,689 13.0 22.9°
